Regional Weather Roundup
Issued by NWS

Home | Current Version | Previous Version | Text Only | Print | Product List | Glossary Off
Versions: 1 2 3 4 5 6 7 8 9 10 11 12 13 14 15 16 17 18 19 20 21 22 23 24 25 26 27 28 29 30 31 32 33 34 35 36 37 38 39 40 41 42 43 44 45 46 47 48 49 50

000
ASUS43 KMKX 190000
RWRWI

WISCONSIN REGIONAL WEATHER ROUNDUP
NATIONAL WEATHER SERVICE MILWAUKEE/SULLIVAN WI
700 PM CDT SAT APR 18 2015

NOTE: "FAIR" INDICATES FEW OR NO CLOUDS BELOW 12,000 FEET WITH NO
SIGNIFICANT WEATHER AND/OR OBSTRUCTIONS TO VISIBILITY.

WIZ001-002-006>008-014>016-023>028-190100-
NORTHWEST WISCONSIN

CITY           SKY/WX    TMP DP  RH WIND       PRES   REMARKS
SUPERIOR ARPT  CLEAR     38  33  81 E18G26    30.10F WCI  29
ASHLAND        CLEAR     40  33  76 N13       30.10F WCI  32
6HR MIN TEMP:  40; 6HR MAX TEMP:  52;

HAYWARD        MOCLDY    56  32  40 NE13      30.03S
6HR MIN TEMP:  56; 6HR MAX TEMP:  68;

SIREN          CLOUDY    67  30  24 SE8       29.98S
CUMBERLAND     CLOUDY    61  32  33 SE8       30.00F
RICE LAKE      CLOUDY    64  31  29 SE13      30.02S
CHETEK         CLOUDY    63  35  36 E10       30.01F
LADYSMITH      CLOUDY    64  28  26 SE13G20   30.05S
EAU CLAIRE     NOT AVBL
MENOMONIE      MOCLDY    66  29  25 E18       29.98F
NEW RICHMOND   CLOUDY    65  33  29 E14       29.96F
OSCEOLA        CLOUDY    66  34  30 E15       29.99S
$$

WIZ003>005-009-010-017-018-190100-
NORTH CENTRAL WISCONSIN

CITY           SKY/WX    TMP DP  RH WIND       PRES   REMARKS
MANITOWISH WTR CLEAR     60  22  23 E8        30.08S
ARBOR VITAE    CLEAR     62  19  18 SE10G18   30.08S
WOODRUFF       CLEAR     62  19  18 SE10G18   30.08S
RHINELANDER    PTCLDY    58  22  24 SE15      30.09F
6HR MIN TEMP:  58; 6HR MAX TEMP:  64;

EAGLE RIVER    CLEAR     60  15  17 SE7       30.10S
LAND O LAKES   CLEAR     60  17  18 SE9       30.11S
PHILLIPS       CLOUDY    62  28  28 SE10      30.05S
TOMAHAWK       MOCLDY    59  22  23 SE3       30.09S
MEDFORD        CLOUDY    57  22  26 E8        30.06F
MERRILL        MOCLDY    58  17  19 SE13      30.09S
$$

WIZ029-030-035-036-043>047-190100-
CENTRAL WISCONSIN

CITY           SKY/WX    TMP DP  RH WIND       PRES   REMARKS
WAUSAU         PTCLDY    57  15  19 E9        30.07F
6HR MIN TEMP:  57; 6HR MAX TEMP:  64;

MOSINEE        NOT AVBL
MARSHFIELD     MOCLDY    59  25  27 E15       30.05F
6HR MIN TEMP:  59; 6HR MAX TEMP:  66;

STEVENS POINT  PTCLDY    56  20  24 E14       30.09S
WAUPACA        PTCLDY    60  24  25 NE9       30.10S
WAUTOMA        NOT AVBL
WISC RAPIDS    PTCLDY    60  20  21 E12       30.06F
6HR MIN TEMP:  60; 6HR MAX TEMP:  65;

CAMP DOUGLAS   NOT AVBL
$$

WIZ011>013-019>022-031-037>040-048>050-190100-
NORTHEAST WISCONSIN

CITY           SKY/WX    TMP DP  RH WIND       PRES   REMARKS
ANTIGO         CLEAR     54  17  23 E12       30.11S
SHAWANO        CLEAR     58  25  28 E9        30.12S
OCONTO         CLEAR     55  24  29 E8        30.12S
STURGEON BAY   PTCLDY    54  21  28 NE15      30.15S
6HR MIN TEMP:  52; 6HR MAX TEMP:  57;

GREEN BAY      CLEAR     52  30  43 NE18      30.12S
6HR MIN TEMP:  52; 6HR MAX TEMP:  58;

MANITOWOC      NOT AVBL
APPLETON       PTCLDY    55  21  26 NE12      30.10
CLINTONVILLE   CLEAR     57  12  17 E10       30.11S
OSHKOSH        CLEAR     56  35  45 NE8       30.08S
6HR MIN TEMP:  56; 6HR MAX TEMP:  61;

$$

WIZ032>034-041-042-053>061-190100-
SOUTHWEST WISCONSIN

CITY           SKY/WX    TMP DP  RH WIND       PRES   REMARKS
LA CROSSE      MOCLDY    68  34  28 E9        29.95S
6HR MIN TEMP:  68; 6HR MAX TEMP:  76;

SPARTA         MOCLDY    64  26  23 E16G22    30.00F
VIROQUA        MOCLDY    64  34  32 E18G24    29.97F
BOSCOBEL       PTCLDY    68  34  28 E9        29.96S
6HR MIN TEMP:  68; 6HR MAX TEMP:  76;

PRAIRIE DU CHI MOCLDY    69  33  26 E17G23    29.93S
PLATTEVILLE    CLOUDY    69  34  27 E21       29.96S
$$

WIZ056-057-062-063-064-067-068-190100-
SOUTH CENTRAL WISCONSIN

CITY           SKY/WX    TMP DP  RH WIND       PRES   REMARKS
REEDSBURG      CLEAR     64  31  29 E10G18    30.01F
BARABOO/DELLS  CLEAR     63  26  24 E15G22    30.02F
LONE ROCK      NOT AVBL
MINERAL POINT  PTCLDY    66  30  26 E10       29.98S
MADISON        MOCLDY    63  32  31 E13       30.01F
6HR MIN TEMP:  63; 6HR MAX TEMP:  68;

MIDDLETON      CLEAR     66  26  22 E10G17    30.01F
WATERTOWN      CLEAR     61  34  36 NE13G18   30.03F
MONROE         PTCLDY    66  32  28 E13G22    29.98F
JANESVILLE     CLEAR     66  32  28 E16       29.99F
$$

WIZ051-052-058>065-066-070>072-190100-
SOUTHEAST WISCONSIN

CITY           SKY/WX    TMP DP  RH WIND       PRES   REMARKS
MILWAUKEE      PTCLDY    45  31  58 N22G31    30.07F
6HR MIN TEMP:  44; 6HR MAX TEMP:  48;

WAUKESHA       PTCLDY    54  30  40 E9G16     30.06F
MILWAUKEE/TIMM CLEAR     52  27  37 NE14      30.07F
RACINE         CLEAR     43  33  68 N18       30.06F
6HR MIN TEMP:  43; 6HR MAX TEMP:  49;

BURLINGTON     CLEAR     53  28  38 NE17G24   30.03F
KENOSHA        PTCLDY    48  33  56 NE16G26   30.03F
6HR MIN TEMP:  48; 6HR MAX TEMP:  58;

FOND DU LAC    CLEAR     59  27  29 NE12      30.07F
6HR MIN TEMP:  59; 6HR MAX TEMP:  65;

SHEBOYGAN      CLEAR     50  27  40 NE18G26   30.09F
6HR MIN TEMP:  50; 6HR MAX TEMP:  56;

WEST BEND      CLEAR     52  27  37 NE10G18   30.08S
JUNEAU         CLEAR     60  32  34 NE9       30.06F
$$

LSZ147-162-190100-
LAKE SUPERIOR

STATION/POSITION TIME  TEMP    WIND        PRES    WAVE
                       AIR SEA DIR/SP/G            HT/PER
                 (UTC) (F)     (DEG/KT/KT) (MB)    (FT/S)
DEVILS ISLAND    2300   37      50/ 21/ 23 1021.0F
PORT WING        2340   39      40/ 20/ 23 1019.3F
SAXON HARBOR     2340   40     320/  5/  6 1018.6F
$$

LMZ867-665-643>646-190100-
LAKE MICHIGAN

STATION/POSITION TIME  TEMP    WIND        PRES    WAVE
                       AIR SEA DIR/SP/G            HT/PER
                 (UTC) (F)     (DEG/KT/KT) (MB)    (FT/S)
CHAMBERS ISLAND  2300   43      10/  5/  7 1021.3F
NORTHPORT PIER   2300   52      40/ 10/ 13 1021.0F
SISTER BAY       2347   56      80/  5/ 10   N/A
KEWAUNEE LAKESHO 2300   46      30/ 13/ 19 1019.4F
SHEBOYGAN LAKESH 2300   43      10/ 18/ 20 1020.2S
PORT WASHINGTON  2340   51      30/ 13/ 18 1019.3S
MILWAUKEE LAKESH 2300   43      10/ 21/ 28   N/A
KENOSHA   LAKESH 2300   44      10/ 23/ 28 1017.6F
$$

TC  - TEMPERATURE IN CELSIUS
VSB - VISIBILITY IN STATUTE MILES
WCI - WIND CHILL INDEX
HX  - HEAT INDEX




USA.gov is the U.S. government's official web portal to all federal, state and local government web resources and services.